owner,sensor,date,latitude,longitude,vertical_datum,mass_concentration_of_oxygen_in_sea_water,qcFlag 
DISL,ioos:station:DISL:MHPA:1,2011-09-01T00:00:00Z,30.6671,-87.9365,4.034,7.57,1111122 
DISL,ioos:station:DISL:MHPA:1,2011-09-01T00:30:00Z,30.6671,-87.9365,4.145,7.56,1111122 
DISL,ioos:station:DISL:MHPA:1,2011-09-01T01:00:00Z,30.6671,-87.9365,4.107,7.19,1111122 
DISL,ioos:station:DISL:MHPA:1,2011-09-01T01:30:00Z,30.6671,-87.9365,3.947,6.96,1111122 
DISL,ioos:station:DISL:MHPA:1,2011-09-01T02:00:00Z,30.6671,-87.9365,3.962,6.85,1111122 
DISL,ioos:station:DISL:MHPA:1,2011-09-01T02:30:00Z,30.6671,-87.9365,3.981,6.81,1111122 
DISL,ioos:station:DISL:MHPA:1,2011-09-01T03:00:00Z,30.6671,-87.9365,3.989,6.8,1111122 
DISL,ioos:station:DISL:MHPA:1,2011-09-01T03:30:00Z,30.6671,-87.9365,4.062,6.6,1111122 
DISL,ioos:station:DISL:MHPA:1,2011-09-01T04:00:00Z,30.6671,-87.9365,4.219,6.48,1111122 
DISL,ioos:station:DISL:MHPA:1,2011-09-01T04:30:00Z,30.6671,-87.9365,4.285,6.88,1111122 
DISL,ioos:station:DISL:MHPA:1,2011-09-01T05:00:00Z,30.6671,-87.9365,4.311,6.56,1111122 
DISL,ioos:station:DISL:MHPA:1,2011-09-01T05:30:00Z,30.6671,-87.9365,4.371,6.67,1111122 
DISL,ioos:station:DISL:MHPA:1,2011-09-01T06:00:00Z,30.6671,-87.9365,4.428,5.53,1111122 
DISL,ioos:station:DISL:MHPA:1,2011-09-01T06:30:00Z,30.6671,-87.9365,4.49,6.25,1111122 
DISL,ioos:station:DISL:MHPA:1,2011-09-01T07:00:00Z,30.6671,-87.9365,4.494,5.97,1111122 
DISL,ioos:station:DISL:MHPA:1,2011-09-01T07:30:00Z,30.6671,-87.9365,4.517,5.97,1111122 
DISL,ioos:station:DISL:MHPA:1,2011-09-01T08:00:00Z,30.6671,-87.9365,4.456,5.94,1111122 
DISL,ioos:station:DISL:MHPA:1,2011-09-01T08:30:00Z,30.6671,-87.9365,4.424,5.58,1111122 
DISL,ioos:station:DISL:MHPA:1,2011-09-01T09:00:00Z,30.6671,-87.9365,4.406,5.54,1111122 
DISL,ioos:station:DISL:MHPA:1,2011-09-01T09:30:00Z,30.6671,-87.9365,4.383,5.63,1111122 
DISL,ioos:station:DISL:MHPA:1,2011-09-01T10:00:00Z,30.6671,-87.9365,4.374,5.16,1111122 
DISL,ioos:station:DISL:MHPA:1,2011-09-01T10:30:00Z,30.6671,-87.9365,4.299,5.25,1111122 
DISL,ioos:station:DISL:MHPA:1,2011-09-01T11:00:00Z,30.6671,-87.9365,4.195,5.49,1111122 
DISL,ioos:station:DISL:MHPA:1,2011-09-01T11:30:00Z,30.6671,-87.9365,4.062,5.49,1111122 
DISL,ioos:station:DISL:MHPA:1,2011-09-01T12:00:00Z,30.6671,-87.9365,3.974,4.79,1111122 
DISL,ioos:station:DISL:MHPA:1,2011-09-01T12:30:00Z,30.6671,-87.9365,4.049,5.21,1111122 
DISL,ioos:station:DISL:MHPA:1,2011-09-01T13:00:00Z,30.6671,-87.9365,4.311,5.24,1111122 
DISL,ioos:station:DISL:MHPA:1,2011-09-01T13:30:00Z,30.6671,-87.9365,4.113,5.47,1111122 
DISL,ioos:station:DISL:MHPA:1,2011-09-01T14:00:00Z,30.6671,-87.9365,3.784,4.93,1111122 
DISL,ioos:station:DISL:MHPA:1,2011-09-01T14:30:00Z,30.6671,-87.9365,3.696,4.66,1111122 
DISL,ioos:station:DISL:MHPA:1,2011-09-01T15:00:00Z,30.6671,-87.9365,3.612,4.95,1111122 
DISL,ioos:station:DISL:MHPA:1,2011-09-01T15:30:00Z,30.6671,-87.9365,3.471,5.73,1111122 
DISL,ioos:station:DISL:MHPA:1,2011-09-01T16:00:00Z,30.6671,-87.9365,3.543,5.35,1111122 
DISL,ioos:station:DISL:MHPA:1,2011-09-01T16:30:00Z,30.6671,-87.9365,3.964,5.57,1111122 
DISL,ioos:station:DISL:MHPA:1,2011-09-01T17:00:00Z,30.6671,-87.9365,3.824,5.77,1111122 
DISL,ioos:station:DISL:MHPA:1,2011-09-01T17:30:00Z,30.6671,-87.9365,3.681,5.71,1111122 
DISL,ioos:station:DISL:MHPA:1,2011-09-01T18:00:00Z,30.6671,-87.9365,3.728,6.24,1111122 
DISL,ioos:station:DISL:MHPA:1,2011-09-01T18:30:00Z,30.6671,-87.9365,3.746,6.31,1111122 
DISL,ioos:station:DISL:MHPA:1,2011-09-01T19:00:00Z,30.6671,-87.9365,3.632,6.76,1111122 
DISL,ioos:station:DISL:MHPA:1,2011-09-01T19:30:00Z,30.6671,-87.9365,3.642,6.49,1111122 
DISL,ioos:station:DISL:MHPA:1,2011-09-01T20:00:00Z,30.6671,-87.9365,3.743,6.79,1111122 
DISL,ioos:station:DISL:MHPA:1,2011-09-01T20:30:00Z,30.6671,-87.9365,3.893,6.74,1111122 
DISL,ioos:station:DISL:MHPA:1,2011-09-01T21:00:00Z,30.6671,-87.9365,3.998,7.04,1111122 
DISL,ioos:station:DISL:MHPA:1,2011-09-01T21:30:00Z,30.6671,-87.9365,3.875,7.16,1111122 
DISL,ioos:station:DISL:MHPA:1,2011-09-01T22:00:00Z,30.6671,-87.9365,4.104,6.98,1111122 
DISL,ioos:station:DISL:MHPA:1,2011-09-01T22:30:00Z,30.6671,-87.9365,4.327,6.97,1111122 
DISL,ioos:station:DISL:MHPA:1,2011-09-01T23:00:00Z,30.6671,-87.9365,4.381,6.9,1111122 
DISL,ioos:station:DISL:MHPA:1,2011-09-01T23:30:00Z,30.6671,-87.9365,4.259,6.69,1111122 
DISL,ioos:station:DISL:MHPA:1,2011-09-02T00:00:00Z,30.6671,-87.9365,4.303,6.81,1111122 
DISL,ioos:station:DISL:MHPA:1,2011-09-02T00:30:00Z,30.6671,-87.9365,4.234,6.6,1111122 
DISL,ioos:station:DISL:MHPA:1,2011-09-02T01:00:00Z,30.6671,-87.9365,4.149,6.07,1111122 
DISL,ioos:station:DISL:MHPA:1,2011-09-02T01:30:00Z,30.6671,-87.9365,4.102,6.11,1111122 
DISL,ioos:station:DISL:MHPA:1,2011-09-02T02:00:00Z,30.6671,-87.9365,4.166,6.01,1111122 
DISL,ioos:station:DISL:MHPA:1,2011-09-02T02:30:00Z,30.6671,-87.9365,4.32,5.84,1111122 
DISL,ioos:station:DISL:MHPA:1,2011-09-02T03:00:00Z,30.6671,-87.9365,4.409,5.82,1111122 
DISL,ioos:station:DISL:MHPA:1,2011-09-02T03:30:00Z,30.6671,-87.9365,4.419,5.76,1111122 
DISL,ioos:station:DISL:MHPA:1,2011-09-02T04:00:00Z,30.6671,-87.9365,4.469,5.61,1111122 
DISL,ioos:station:DISL:MHPA:1,2011-09-02T04:30:00Z,30.6671,-87.9365,4.613,5.26,1111122 
DISL,ioos:station:DISL:MHPA:1,2011-09-02T05:00:00Z,30.6671,-87.9365,4.714,5.56,1111122 
DISL,ioos:station:DISL:MHPA:1,2011-09-02T05:30:00Z,30.6671,-87.9365,4.764,5.5,1111122 
DISL,ioos:station:DISL:MHPA:1,2011-09-02T06:00:00Z,30.6671,-87.9365,4.807,5.4,1111122 
DISL,ioos:station:DISL:MHPA:1,2011-09-02T06:30:00Z,30.6671,-87.9365,4.904,5.33,1111122 
DISL,ioos:station:DISL:MHPA:1,2011-09-02T07:00:00Z,30.6671,-87.9365,5.013,4.62,1111122 
DISL,ioos:station:DISL:MHPA:1,2011-09-02T07:30:00Z,30.6671,-87.9365,4.979,4.99,1111122 
DISL,ioos:station:DISL:MHPA:1,2011-09-02T08:00:00Z,30.6671,-87.9365,5.02,4.5,1111122 
DISL,ioos:station:DISL:MHPA:1,2011-09-02T08:30:00Z,30.6671,-87.9365,5.011,3.01,1111122 
DISL,ioos:station:DISL:MHPA:1,2011-09-02T09:00:00Z,30.6671,-87.9365,4.958,3.25,1111122 
DISL,ioos:station:DISL:MHPA:1,2011-09-02T09:30:00Z,30.6671,-87.9365,4.945,3.48,1111122 
DISL,ioos:station:DISL:MHPA:1,2011-09-02T10:00:00Z,30.6671,-87.9365,4.91,3.21,1111122 
DISL,ioos:station:DISL:MHPA:1,2011-09-02T10:30:00Z,30.6671,-87.9365,4.802,3.94,1111122 
DISL,ioos:station:DISL:MHPA:1,2011-09-02T11:00:00Z,30.6671,-87.9365,4.703,3.76,1111122 
DISL,ioos:station:DISL:MHPA:1,2011-09-02T11:30:00Z,30.6671,-87.9365,4.622,3.18,1111122 
DISL,ioos:station:DISL:MHPA:1,2011-09-02T12:00:00Z,30.6671,-87.9365,4.487,3.25,1111122 
DISL,ioos:station:DISL:MHPA:1,2011-09-02T12:30:00Z,30.6671,-87.9365,4.321,3.06,1111122 
DISL,ioos:station:DISL:MHPA:1,2011-09-02T13:00:00Z,30.6671,-87.9365,4.163,3.19,1111122 
DISL,ioos:station:DISL:MHPA:1,2011-09-02T13:30:00Z,30.6671,-87.9365,4.048,3.52,1111122 
DISL,ioos:station:DISL:MHPA:1,2011-09-02T14:00:00Z,30.6671,-87.9365,4.023,3.74,1111122 
DISL,ioos:station:DISL:MHPA:1,2011-09-02T14:30:00Z,30.6671,-87.9365,3.994,3.68,1111122 
DISL,ioos:station:DISL:MHPA:1,2011-09-02T15:00:00Z,30.6671,-87.9365,3.82,3.79,1111122 
DISL,ioos:station:DISL:MHPA:1,2011-09-02T15:30:00Z,30.6671,-87.9365,3.786,3.88,1111122 
DISL,ioos:station:DISL:MHPA:1,2011-09-02T16:00:00Z,30.6671,-87.9365,4.428,4.08,1111122 
DISL,ioos:station:DISL:MHPA:1,2011-09-02T16:30:00Z,30.6671,-87.9365,4.091,3.78,1111122 
DISL,ioos:station:DISL:MHPA:1,2011-09-02T17:00:00Z,30.6671,-87.9365,3.823,4.07,1111122 
DISL,ioos:station:DISL:MHPA:1,2011-09-02T17:30:00Z,30.6671,-87.9365,3.729,4.65,1111122 
DISL,ioos:station:DISL:MHPA:1,2011-09-02T18:00:00Z,30.6671,-87.9365,3.794,4.74,1111122 
DISL,ioos:station:DISL:MHPA:1,2011-09-02T18:30:00Z,30.6671,-87.9365,3.702,5.32,1111122 
DISL,ioos:station:DISL:MHPA:1,2011-09-02T19:00:00Z,30.6671,-87.9365,3.674,5.46,1111122 
DISL,ioos:station:DISL:MHPA:1,2011-09-02T19:30:00Z,30.6671,-87.9365,3.666,5.88,1111122 
DISL,ioos:station:DISL:MHPA:1,2011-09-02T20:00:00Z,30.6671,-87.9365,3.574,6.05,1111122 
DISL,ioos:station:DISL:MHPA:1,2011-09-02T20:30:00Z,30.6671,-87.9365,3.396,5.97,1111122 
DISL,ioos:station:DISL:MHPA:1,2011-09-02T21:00:00Z,30.6671,-87.9365,3.31,6.06,1111122 
DISL,ioos:station:DISL:MHPA:1,2011-09-02T21:30:00Z,30.6671,-87.9365,3.323,6.11,1111122 
DISL,ioos:station:DISL:MHPA:1,2011-09-02T22:00:00Z,30.6671,-87.9365,3.333,6.17,1111122 
DISL,ioos:station:DISL:MHPA:1,2011-09-02T22:30:00Z,30.6671,-87.9365,3.604,5.59,1111122 
DISL,ioos:station:DISL:MHPA:1,2011-09-02T23:00:00Z,30.6671,-87.9365,3.645,5.56,1111122 
DISL,ioos:station:DISL:MHPA:1,2011-09-02T23:30:00Z,30.6671,-87.9365,3.76,5.18,1111122 
DISL,ioos:station:DISL:MHPA:1,2011-09-03T00:00:00Z,30.6671,-87.9365,3.955,5.16,1111122 
DISL,ioos:station:DISL:MHPA:1,2011-09-03T00:30:00Z,30.6671,-87.9365,4.001,5.21,1111122 
DISL,ioos:station:DISL:MHPA:1,2011-09-03T01:00:00Z,30.6671,-87.9365,3.916,5.4,1111122 
DISL,ioos:station:DISL:MHPA:1,2011-09-03T01:30:00Z,30.6671,-87.9365,4.003,4.91,1111122 
DISL,ioos:station:DISL:MHPA:1,2011-09-03T02:00:00Z,30.6671,-87.9365,4.046,4.44,1111122 
DISL,ioos:station:DISL:MHPA:1,2011-09-03T02:30:00Z,30.6671,-87.9365,4.147,5.24,1111122 
DISL,ioos:station:DISL:MHPA:1,2011-09-03T03:00:00Z,30.6671,-87.9365,4.438,5.31,1111122 
DISL,ioos:station:DISL:MHPA:1,2011-09-03T03:30:00Z,30.6671,-87.9365,4.776,5.28,1111122 
DISL,ioos:station:DISL:MHPA:1,2011-09-03T04:00:00Z,30.6671,-87.9365,5.138,5.2,1111122 
DISL,ioos:station:DISL:MHPA:1,2011-09-03T04:30:00Z,30.6671,-87.9365,5.341,4.78,1111122 
DISL,ioos:station:DISL:MHPA:1,2011-09-03T05:00:00Z,30.6671,-87.9365,5.107,3.99,1111122 
DISL,ioos:station:DISL:MHPA:1,2011-09-03T05:30:00Z,30.6671,-87.9365,5.058,4.57,1111122 
DISL,ioos:station:DISL:MHPA:1,2011-09-03T06:00:00Z,30.6671,-87.9365,5.258,4.4,1111122 
DISL,ioos:station:DISL:MHPA:1,2011-09-03T06:30:00Z,30.6671,-87.9365,5.312,3.78,1111122 
DISL,ioos:station:DISL:MHPA:1,2011-09-03T07:00:00Z,30.6671,-87.9365,5.357,3.54,1111122 
DISL,ioos:station:DISL:MHPA:1,2011-09-03T07:30:00Z,30.6671,-87.9365,5.479,3.32,1111122 
DISL,ioos:station:DISL:MHPA:1,2011-09-03T08:00:00Z,30.6671,-87.9365,5.69,3.4,1111122 
DISL,ioos:station:DISL:MHPA:1,2011-09-03T08:30:00Z,30.6671,-87.9365,5.893,3.07,1111122 
DISL,ioos:station:DISL:MHPA:1,2011-09-03T09:00:00Z,30.6671,-87.9365,5.948,2.86,1111122 
DISL,ioos:station:DISL:MHPA:1,2011-09-03T09:30:00Z,30.6671,-87.9365,5.801,3.26,1111122 
DISL,ioos:station:DISL:MHPA:1,2011-09-03T10:00:00Z,30.6671,-87.9365,5.977,3.25,1111122 
DISL,ioos:station:DISL:MHPA:1,2011-09-03T10:30:00Z,30.6671,-87.9365,5.931,3.18,1111122 
DISL,ioos:station:DISL:MHPA:1,2011-09-03T11:00:00Z,30.6671,-87.9365,5.377,3.8,1111122 
DISL,ioos:station:DISL:MHPA:1,2011-09-03T11:30:00Z,30.6671,-87.9365,5.338,3.86,1111122 
DISL,ioos:station:DISL:MHPA:1,2011-09-03T12:00:00Z,30.6671,-87.9365,5.265,3.34,1111122 
DISL,ioos:station:DISL:MHPA:1,2011-09-03T12:30:00Z,30.6671,-87.9365,5.097,3.68,1111122 
DISL,ioos:station:DISL:MHPA:1,2011-09-03T13:00:00Z,30.6671,-87.9365,5.038,3.24,1111122 
DISL,ioos:station:DISL:MHPA:1,2011-09-03T13:30:00Z,30.6671,-87.9365,5.02,3.56,1111122 
DISL,ioos:station:DISL:MHPA:1,2011-09-03T14:00:00Z,30.6671,-87.9365,4.893,3.64,1111122 
DISL,ioos:station:DISL:MHPA:1,2011-09-03T14:30:00Z,30.6671,-87.9365,4.877,5.04,1111122 
DISL,ioos:station:DISL:MHPA:1,2011-09-03T15:00:00Z,30.6671,-87.9365,5.126,4.91,1111122 
DISL,ioos:station:DISL:MHPA:1,2011-09-03T15:30:00Z,30.6671,-87.9365,4.866,4.31,1111122 
DISL,ioos:station:DISL:MHPA:1,2011-09-03T16:00:00Z,30.6671,-87.9365,4.52,4.31,1111122 
DISL,ioos:station:DISL:MHPA:1,2011-09-03T16:30:00Z,30.6671,-87.9365,4.495,4.52,1111122 
DISL,ioos:station:DISL:MHPA:1,2011-09-03T17:00:00Z,30.6671,-87.9365,4.835,4.7,1111122 
DISL,ioos:station:DISL:MHPA:1,2011-09-03T17:30:00Z,30.6671,-87.9365,4.626,5.09,1111122 
DISL,ioos:station:DISL:MHPA:1,2011-09-03T18:00:00Z,30.6671,-87.9365,4.253,5.16,1111122 
DISL,ioos:station:DISL:MHPA:1,2011-09-03T18:30:00Z,30.6671,-87.9365,4.412,5.06,1111122 
DISL,ioos:station:DISL:MHPA:1,2011-09-03T19:00:00Z,30.6671,-87.9365,4.477,5.31,1111122 
DISL,ioos:station:DISL:MHPA:1,2011-09-03T19:30:00Z,30.6671,-87.9365,4.395,5.36,1111122 
DISL,ioos:station:DISL:MHPA:1,2011-09-03T20:00:00Z,30.6671,-87.9365,4.55,5.56,1111122 
DISL,ioos:station:DISL:MHPA:1,2011-09-03T20:30:00Z,30.6671,-87.9365,4.615,5.53,1111122 
DISL,ioos:station:DISL:MHPA:1,2011-09-03T21:00:00Z,30.6671,-87.9365,4.495,5.59,1111122 
DISL,ioos:station:DISL:MHPA:1,2011-09-03T21:30:00Z,30.6671,-87.9365,4.621,5.77,1111122 
DISL,ioos:station:DISL:MHPA:1,2011-09-03T22:00:00Z,30.6671,-87.9365,4.795,5.72,1111122 
DISL,ioos:station:DISL:MHPA:1,2011-09-03T22:30:00Z,30.6671,-87.9365,4.826,5.63,1111122 
DISL,ioos:station:DISL:MHPA:1,2011-09-03T23:00:00Z,30.6671,-87.9365,4.661,5.42,1111122 
DISL,ioos:station:DISL:MHPA:1,2011-09-03T23:30:00Z,30.6671,-87.9365,4.674,5.64,1111122 
DISL,ioos:station:DISL:MHPA:1,2011-09-04T00:00:00Z,30.6671,-87.9365,5.297,5.86,1111122 
DISL,ioos:station:DISL:MHPA:1,2011-09-04T00:30:00Z,30.6671,-87.9365,5.502,5.7,1111122 
DISL,ioos:station:DISL:MHPA:1,2011-09-04T01:00:00Z,30.6671,-87.9365,5.379,5.87,1111122 
DISL,ioos:station:DISL:MHPA:1,2011-09-04T01:30:00Z,30.6671,-87.9365,5.33,5.84,1111122 
DISL,ioos:station:DISL:MHPA:1,2011-09-04T02:00:00Z,30.6671,-87.9365,5.502,5.84,1111122 
DISL,ioos:station:DISL:MHPA:1,2011-09-04T02:30:00Z,30.6671,-87.9365,5.571,5.9,1111122 
DISL,ioos:station:DISL:MHPA:1,2011-09-04T03:00:00Z,30.6671,-87.9365,5.347,5.95,1111122 
DISL,ioos:station:DISL:MHPA:1,2011-09-04T03:30:00Z,30.6671,-87.9365,5.329,5.93,1111122 
DISL,ioos:station:DISL:MHPA:1,2011-09-04T04:00:00Z,30.6671,-87.9365,5.509,5.92,1111122 
DISL,ioos:station:DISL:MHPA:1,2011-09-04T04:30:00Z,30.6671,-87.9365,5.723,5.91,1111122 
DISL,ioos:station:DISL:MHPA:1,2011-09-04T05:00:00Z,30.6671,-87.9365,5.523,5.84,1111122 
DISL,ioos:station:DISL:MHPA:1,2011-09-04T05:30:00Z,30.6671,-87.9365,5.423,5.85,1111122 
DISL,ioos:station:DISL:MHPA:1,2011-09-04T06:00:00Z,30.6671,-87.9365,5.824,5.97,1111122 
DISL,ioos:station:DISL:MHPA:1,2011-09-04T06:30:00Z,30.6671,-87.9365,5.993,5.91,1111122 
DISL,ioos:station:DISL:MHPA:1,2011-09-04T07:00:00Z,30.6671,-87.9365,6.074,5.58,1111122 
DISL,ioos:station:DISL:MHPA:1,2011-09-04T07:30:00Z,30.6671,-87.9365,6.492,5.83,1111122 
DISL,ioos:station:DISL:MHPA:1,2011-09-04T08:00:00Z,30.6671,-87.9365,6.633,5.84,1111122 
DISL,ioos:station:DISL:MHPA:1,2011-09-04T08:30:00Z,30.6671,-87.9365,6.533,5.74,1111122 
DISL,ioos:station:DISL:MHPA:1,2011-09-04T09:00:00Z,30.6671,-87.9365,6.431,5.77,1111122 
DISL,ioos:station:DISL:MHPA:1,2011-09-04T09:30:00Z,30.6671,-87.9365,6.446,5.68,1111122 
DISL,ioos:station:DISL:MHPA:1,2011-09-04T10:00:00Z,30.6671,-87.9365,6.749,5.17,1111122 
DISL,ioos:station:DISL:MHPA:1,2011-09-04T10:30:00Z,30.6671,-87.9365,6.734,5.69,1111122 
DISL,ioos:station:DISL:MHPA:1,2011-09-04T11:00:00Z,30.6671,-87.9365,6.508,5.36,1111122 
DISL,ioos:station:DISL:MHPA:1,2011-09-04T11:30:00Z,30.6671,-87.9365,6.46,5.43,1111122 
DISL,ioos:station:DISL:MHPA:1,2011-09-04T12:00:00Z,30.6671,-87.9365,6.881,5.27,1111122 
DISL,ioos:station:DISL:MHPA:1,2011-09-04T12:30:00Z,30.6671,-87.9365,6.781,5.36,1111122 
DISL,ioos:station:DISL:MHPA:1,2011-09-04T13:00:00Z,30.6671,-87.9365,6.515,5.24,1111122 
DISL,ioos:station:DISL:MHPA:1,2011-09-04T13:30:00Z,30.6671,-87.9365,6.274,5.7,1111122 
DISL,ioos:station:DISL:MHPA:1,2011-09-04T14:00:00Z,30.6671,-87.9365,6.142,5.7,1111122 
DISL,ioos:station:DISL:MHPA:1,2011-09-04T14:30:00Z,30.6671,-87.9365,6.038,5.3,1111122 
DISL,ioos:station:DISL:MHPA:1,2011-09-04T15:00:00Z,30.6671,-87.9365,5.74,6.17,1111122 
DISL,ioos:station:DISL:MHPA:1,2011-09-04T15:30:00Z,30.6671,-87.9365,5.546,5.97,1111122 
DISL,ioos:station:DISL:MHPA:1,2011-09-04T16:00:00Z,30.6671,-87.9365,5.454,6.23,1111122 
DISL,ioos:station:DISL:MHPA:1,2011-09-04T16:30:00Z,30.6671,-87.9365,5.535,6.26,1111122 
DISL,ioos:station:DISL:MHPA:1,2011-09-04T17:00:00Z,30.6671,-87.9365,5.534,6.7,1111122 
DISL,ioos:station:DISL:MHPA:1,2011-09-04T17:30:00Z,30.6671,-87.9365,5.526,6.76,1111122 
DISL,ioos:station:DISL:MHPA:1,2011-09-04T18:00:00Z,30.6671,-87.9365,5.449,6.79,1111122 
DISL,ioos:station:DISL:MHPA:1,2011-09-04T18:30:00Z,30.6671,-87.9365,5.511,6.72,1111122 
DISL,ioos:station:DISL:MHPA:1,2011-09-04T19:00:00Z,30.6671,-87.9365,5.267,6.93,1111122 
DISL,ioos:station:DISL:MHPA:1,2011-09-04T19:30:00Z,30.6671,-87.9365,5.289,6.91,1111122 
DISL,ioos:station:DISL:MHPA:1,2011-09-04T20:00:00Z,30.6671,-87.9365,5.327,7.11,1111122 
DISL,ioos:station:DISL:MHPA:1,2011-09-04T20:30:00Z,30.6671,-87.9365,5.471,7.51,1111122 
DISL,ioos:station:DISL:MHPA:1,2011-09-04T21:00:00Z,30.6671,-87.9365,5.018,6.96,1111122 
DISL,ioos:station:DISL:MHPA:1,2011-09-04T21:30:00Z,30.6671,-87.9365,4.812,6.97,1111122 
DISL,ioos:station:DISL:MHPA:1,2011-09-04T22:00:00Z,30.6671,-87.9365,5.009,7.0,1111122 
DISL,ioos:station:DISL:MHPA:1,2011-09-04T22:30:00Z,30.6671,-87.9365,4.676,7.41,1111122 
DISL,ioos:station:DISL:MHPA:1,2011-09-04T23:00:00Z,30.6671,-87.9365,4.588,7.32,1111122 
DISL,ioos:station:DISL:MHPA:1,2011-09-04T23:30:00Z,30.6671,-87.9365,4.545,7.14,1111122 
DISL,ioos:station:DISL:MHPA:1,2011-09-05T00:00:00Z,30.6671,-87.9365,4.675,6.88,1111122 
DISL,ioos:station:DISL:MHPA:1,2011-09-05T00:30:00Z,30.6671,-87.9365,4.99,6.73,1111122 
DISL,ioos:station:DISL:MHPA:1,2011-09-05T01:00:00Z,30.6671,-87.9365,4.979,6.62,1111122 
DISL,ioos:station:DISL:MHPA:1,2011-09-05T01:30:00Z,30.6671,-87.9365,4.878,6.28,1111122 
DISL,ioos:station:DISL:MHPA:1,2011-09-05T02:00:00Z,30.6671,-87.9365,4.896,6.82,1111122 
DISL,ioos:station:DISL:MHPA:1,2011-09-05T02:30:00Z,30.6671,-87.9365,5.072,6.74,1111122 
DISL,ioos:station:DISL:MHPA:1,2011-09-05T03:00:00Z,30.6671,-87.9365,5.112,6.44,1111122 
DISL,ioos:station:DISL:MHPA:1,2011-09-05T03:30:00Z,30.6671,-87.9365,5.064,6.32,1111122 
DISL,ioos:station:DISL:MHPA:1,2011-09-05T04:00:00Z,30.6671,-87.9365,5.2,6.19,1111122 
DISL,ioos:station:DISL:MHPA:1,2011-09-05T04:30:00Z,30.6671,-87.9365,5.222,5.91,1111122 
DISL,ioos:station:DISL:MHPA:1,2011-09-05T05:00:00Z,30.6671,-87.9365,5.452,6.23,1111122 
DISL,ioos:station:DISL:MHPA:1,2011-09-05T05:30:00Z,30.6671,-87.9365,5.6,6.06,1111122 
DISL,ioos:station:DISL:MHPA:1,2011-09-05T06:00:00Z,30.6671,-87.9365,5.717,5.67,1111122 
DISL,ioos:station:DISL:MHPA:1,2011-09-05T06:30:00Z,30.6671,-87.9365,5.866,5.75,1111122 
DISL,ioos:station:DISL:MHPA:1,2011-09-05T07:00:00Z,30.6671,-87.9365,5.887,6.04,1111122 
DISL,ioos:station:DISL:MHPA:1,2011-09-05T07:30:00Z,30.6671,-87.9365,5.853,6.2,1111122 
DISL,ioos:station:DISL:MHPA:1,2011-09-05T08:00:00Z,30.6671,-87.9365,6.063,5.65,1111122 
DISL,ioos:station:DISL:MHPA:1,2011-09-05T08:30:00Z,30.6671,-87.9365,6.167,5.79,1111122 
DISL,ioos:station:DISL:MHPA:1,2011-09-05T09:00:00Z,30.6671,-87.9365,6.237,5.81,1111122 
DISL,ioos:station:DISL:MHPA:1,2011-09-05T09:30:00Z,30.6671,-87.9365,6.464,5.5,1111122 
DISL,ioos:station:DISL:MHPA:1,2011-09-05T10:00:00Z,30.6671,-87.9365,6.632,5.8,1111122 
DISL,ioos:station:DISL:MHPA:1,2011-09-05T10:30:00Z,30.6671,-87.9365,6.661,5.55,1111122 
DISL,ioos:station:DISL:MHPA:1,2011-09-05T11:00:00Z,30.6671,-87.9365,6.811,5.7,1111122 
DISL,ioos:station:DISL:MHPA:1,2011-09-05T11:30:00Z,30.6671,-87.9365,6.76,5.22,1111122 
DISL,ioos:station:DISL:MHPA:1,2011-09-05T12:00:00Z,30.6671,-87.9365,6.833,5.0,1111122 
DISL,ioos:station:DISL:MHPA:1,2011-09-05T12:30:00Z,30.6671,-87.9365,6.905,5.43,1111122 
DISL,ioos:station:DISL:MHPA:1,2011-09-05T13:00:00Z,30.6671,-87.9365,6.893,5.35,1111122 
DISL,ioos:station:DISL:MHPA:1,2011-09-05T13:30:00Z,30.6671,-87.9365,7.03,5.69,1111122 
DISL,ioos:station:DISL:MHPA:1,2011-09-05T14:00:00Z,30.6671,-87.9365,7.3,5.82,1111122 
DISL,ioos:station:DISL:MHPA:1,2011-09-05T14:30:00Z,30.6671,-87.9365,7.2,5.7,1111122 
DISL,ioos:station:DISL:MHPA:1,2011-09-05T15:00:00Z,30.6671,-87.9365,7.37,5.8,1111122 
DISL,ioos:station:DISL:MHPA:1,2011-09-05T15:30:00Z,30.6671,-87.9365,7.1,5.84,1111122 
DISL,ioos:station:DISL:MHPA:1,2011-09-05T16:00:00Z,30.6671,-87.9365,7.45,5.55,1111122 
DISL,ioos:station:DISL:MHPA:1,2011-09-05T16:30:00Z,30.6671,-87.9365,7.68,6.04,1111122 
DISL,ioos:station:DISL:MHPA:1,2011-09-05T17:00:00Z,30.6671,-87.9365,7.9,5.55,1111122 
DISL,ioos:station:DISL:MHPA:1,2011-09-05T17:30:00Z,30.6671,-87.9365,7.64,5.32,1111122 
DISL,ioos:station:DISL:MHPA:1,2011-09-05T18:00:00Z,30.6671,-87.9365,7.47,5.99,1111122 
DISL,ioos:station:DISL:MHPA:1,2011-09-05T18:30:00Z,30.6671,-87.9365,7.48,6.2,1111122 
DISL,ioos:station:DISL:MHPA:1,2011-09-05T19:00:00Z,30.6671,-87.9365,7.26,5.68,1111122 
DISL,ioos:station:DISL:MHPA:1,2011-09-05T19:30:00Z,30.6671,-87.9365,6.829,5.33,1111122 
DISL,ioos:station:DISL:MHPA:1,2011-09-05T20:00:00Z,30.6671,-87.9365,6.226,6.05,1111122 
DISL,ioos:station:DISL:MHPA:1,2011-09-05T20:30:00Z,30.6671,-87.9365,5.716,5.87,1111122 
DISL,ioos:station:DISL:MHPA:1,2011-09-05T21:00:00Z,30.6671,-87.9365,5.274,5.63,1111122 
DISL,ioos:station:DISL:MHPA:1,2011-09-05T21:30:00Z,30.6671,-87.9365,4.961,6.02,1111122 
DISL,ioos:station:DISL:MHPA:1,2011-09-05T22:00:00Z,30.6671,-87.9365,4.541,6.11,1111122 
DISL,ioos:station:DISL:MHPA:1,2011-09-05T22:30:00Z,30.6671,-87.9365,4.168,6.14,1111122 
DISL,ioos:station:DISL:MHPA:1,2011-09-05T23:00:00Z,30.6671,-87.9365,3.925,6.0,1111122 
DISL,ioos:station:DISL:MHPA:1,2011-09-05T23:30:00Z,30.6671,-87.9365,3.965,5.76,1111122 
DISL,ioos:station:DISL:MHPA:1,2011-09-06T00:00:00Z,30.6671,-87.9365,3.939,6.11,1111122 
DISL,ioos:station:DISL:MHPA:1,2011-09-06T00:30:00Z,30.6671,-87.9365,3.879,5.98,1111122 
DISL,ioos:station:DISL:MHPA:1,2011-09-06T01:00:00Z,30.6671,-87.9365,3.916,5.74,1111122 
DISL,ioos:station:DISL:MHPA:1,2011-09-06T01:30:00Z,30.6671,-87.9365,3.898,5.81,1111122 
DISL,ioos:station:DISL:MHPA:1,2011-09-06T02:00:00Z,30.6671,-87.9365,3.847,5.61,1111122 
DISL,ioos:station:DISL:MHPA:1,2011-09-06T02:30:00Z,30.6671,-87.9365,3.66,5.77,1111122 
DISL,ioos:station:DISL:MHPA:1,2011-09-06T03:00:00Z,30.6671,-87.9365,3.559,5.79,1111122 
DISL,ioos:station:DISL:MHPA:1,2011-09-06T03:30:00Z,30.6671,-87.9365,3.478,5.64,1111122 
DISL,ioos:station:DISL:MHPA:1,2011-09-06T04:00:00Z,30.6671,-87.9365,3.363,5.56,1111122 
DISL,ioos:station:DISL:MHPA:1,2011-09-06T04:30:00Z,30.6671,-87.9365,3.267,5.62,1111122 
DISL,ioos:station:DISL:MHPA:1,2011-09-06T05:00:00Z,30.6671,-87.9365,3.235,5.46,1111122 
DISL,ioos:station:DISL:MHPA:1,2011-09-06T05:30:00Z,30.6671,-87.9365,3.291,5.58,1111122 
DISL,ioos:station:DISL:MHPA:1,2011-09-06T06:00:00Z,30.6671,-87.9365,3.41,5.52,1111122 
DISL,ioos:station:DISL:MHPA:1,2011-09-06T06:30:00Z,30.6671,-87.9365,3.454,5.35,1111122 
DISL,ioos:station:DISL:MHPA:1,2011-09-06T07:00:00Z,30.6671,-87.9365,3.628,5.21,1111122 
DISL,ioos:station:DISL:MHPA:1,2011-09-06T07:30:00Z,30.6671,-87.9365,3.718,5.45,1111122 
DISL,ioos:station:DISL:MHPA:1,2011-09-06T08:00:00Z,30.6671,-87.9365,3.872,5.42,1111122 
DISL,ioos:station:DISL:MHPA:1,2011-09-06T08:30:00Z,30.6671,-87.9365,4.005,5.36,1111122 
DISL,ioos:station:DISL:MHPA:1,2011-09-06T09:00:00Z,30.6671,-87.9365,4.188,5.31,1111122 
DISL,ioos:station:DISL:MHPA:1,2011-09-06T09:30:00Z,30.6671,-87.9365,4.341,5.16,1111122 
DISL,ioos:station:DISL:MHPA:1,2011-09-06T10:00:00Z,30.6671,-87.9365,4.477,5.14,1111122 
DISL,ioos:station:DISL:MHPA:1,2011-09-06T10:30:00Z,30.6671,-87.9365,4.608,4.9,1111122 
DISL,ioos:station:DISL:MHPA:1,2011-09-06T11:00:00Z,30.6671,-87.9365,4.656,4.93,1111122 
DISL,ioos:station:DISL:MHPA:1,2011-09-06T11:30:00Z,30.6671,-87.9365,4.702,4.92,1111122 
DISL,ioos:station:DISL:MHPA:1,2011-09-06T12:00:00Z,30.6671,-87.9365,4.855,5.03,1111122 
DISL,ioos:station:DISL:MHPA:1,2011-09-06T12:30:00Z,30.6671,-87.9365,4.815,4.91,1111122 
DISL,ioos:station:DISL:MHPA:1,2011-09-06T13:00:00Z,30.6671,-87.9365,4.829,4.92,1111122 
DISL,ioos:station:DISL:MHPA:1,2011-09-06T13:30:00Z,30.6671,-87.9365,4.866,4.65,1111122 
DISL,ioos:station:DISL:MHPA:1,2011-09-06T14:00:00Z,30.6671,-87.9365,4.884,4.61,1111122 
DISL,ioos:station:DISL:MHPA:1,2011-09-06T14:30:00Z,30.6671,-87.9365,4.849,4.65,1111122 
DISL,ioos:station:DISL:MHPA:1,2011-09-06T15:00:00Z,30.6671,-87.9365,4.794,5.09,1111122 
DISL,ioos:station:DISL:MHPA:1,2011-09-06T15:30:00Z,30.6671,-87.9365,4.796,5.12,1111122 